Wind_Speed
59 56 56 53 51 51 47 43 41 44 41 35 33 29 21 18 10 10 10 13 12 14 14 17 21 27 32 29 27 22 22 18 17 18 19 18 18 19 19 17 16 13 14 16
67 63 60 58 58 56 53 50 49 49 48 46 38 34 32 31 30 21 23 24 22 25 23 19 21 24 26 28 25 23 19 18 14 13 14 17 17 16 16 15 14 12 12 13
73 70 66 63 62 62 61 57 55 57 54 52 50 43 39 36 35 35 33 32 34 29 30 27 25 22 25 25 25 23 17 16 14 10 11 11 14 14 14 13 12 10 11 12
75 74 73 70 69 67 66 64 62 61 58 58 57 55 50 45 44 43 42 39 38 37 37 33 29 26 23 25 23 21 17 14 14 10 7 8 8 10 10 10 10 9 9 9
77 77 78 77 77 74 73 71 69 67 64 61 63 61 58 55 55 49 47 46 42 40 39 36 33 30 26 24 24 22 16 13 13 12 8 6 6 3 5 7 6 7 9 9
79 80 80 79 80 79 79 78 76 74 71 66 69 65 67 66 63 59 55 52 49 47 43 42 41 39 31 27 27 23 18 13 14 12 12 8 5 5 3 1 3 4 4 5
77 79 81 83 83 82 82 83 81 81 77 75 74 70 74 72 72 69 65 60 57 54 53 50 47 47 39 31 28 27 21 17 15 16 14 13 9 9 9 8 5 3 2 2
79 79 79 80 80 82 83 83 83 85 83 81 83 76 76 81 79 74 71 68 64 61 58 56 53 51 46 39 34 27 24 23 19 18 19 17 15 13 14 14 12 11 9 6
78 79 80 81 80 80 78 79 83 85 85 85 83 82 85 85 83 79 79 77 72 67 63 60 58 56 54 48 40 34 28 28 26 22 23 23 20 19 16 20 20 18 16 14
78 79 78 81 80 80 81 80 80 80 81 83 83 84 86 86 86 86 84 81 78 74 72 69 66 61 60 57 49 41 35 33 32 27 27 26 26 24 24 21 22 24 24 22
79 81 84 84 82 81 81 82 83 83 81 79 78 77 81 82 84 88 86 83 81 79 76 75 72 68 63 57 51 48 45 40 36 34 31 30 31 29 29 29 24 25 27 28
80 79 81 84 85 84 83 83 84 85 83 81 78 73 77 77 77 81 86 83 83 81 78 77 76 71 67 62 57 54 53 49 45 41 38 36 34 33 32 33 31 26 25 27
83 84 84 87 86 84 84 85 84 85 86 84 82 75 80 79 75 77 73 79 79 79 79 79 79 76 71 67 62 56 57 57 53 46 44 40 39 37 36 34 33 32 29 25
79 82 85 87 91 91 89 89 87 85 84 85 80 79 80 81 77 78 74 75 79 76 75 76 77 77 76 73 69 63 56 53 53 50 49 45 44 41 38 35 34 34 33 28
74 77 81 84 87 90 92 92 92 92 92 87 84 79 83 80 79 80 77 77 80 77 75 75 76 76 74 73 72 69 66 58 55 50 46 48 44 44 40 37 34 34 33 28
72 74 77 79 82 85 87 89 94 97 96 91 91 83 87 83 80 79 78 77 81 81 77 75 75 75 73 71 73 71 69 66 61 52 49 46 44 41 40 37 35 34 35 34
62 68 72 74 79 82 82 87 92 94 95 96 93 87 86 87 84 80 79 78 80 81 81 78 76 72 70 72 70 73 70 70 65 56 53 47 45 40 39 37 35 36 35 34
65 66 66 68 72 74 78 84 90 91 92 96 92 90 88 84 83 83 83 80 79 85 83 80 76 77 72 72 72 70 72 69 66 61 57 52 47 45 39 37 37 35 34 35
69 72 75 76 75 72 75 83 87 89 88 94 91 87 85 83 83 82 81 80 78 82 85 83 79 79 77 71 77 74 64 71 63 50 56 51 49 46 40 39 38 34 32 33
65 70 74 76 77 76 84 88 89 87 80 86 86 84 81 78 76 79 79 79 80 78 85 83 81 81 83 77 73 70 66 71 70 70 42 51 50 48 40 40 41 38 38 36
64 67 70 72 73 74 79 79 85 86 84 88 91 89 83 77 72 74 75 76 76 77 81 81 81 82 83 80 83 78 77 76 71 71 65 61 53 51 47 45 48 45 43 44
66 68 71 71 71 74 77 78 79 78 76 79 82 83 82 80 77 71 69 70 71 71 75 75 76 79 80 85 86 85 81 78 77 68 72 62 57 48 43 45 48 53 48 50
62 61 58 56 61 65 64 69 74 71 73 79 70 74 66 63 65 64 66 69 66 65 66 71 73 74 77 80 88 89 88 83 77 77 73 66 62 57 52 46 59 60 60 58
46 46 49 49 50 48 53 52 51 50 54 59 57 60 54 56 46 49 57 60 58 56 57 65 70 70 69 79 82 90 89 87 81 82 83 77 71 62 61 55 73 63 58 53
33 36 38 38 38 39 40 38 35 32 33 36 38 39 40 40 45 44 47 49 49 48 39 64 68 62 75 72 66 88 90 91 89 89 86 86 79 73 67 64 69 71 74 66
31 26 26 28 28 28 25 25 23 20 19 22 25 31 34 35 36 42 46 53 59 64 61 62 74 71 74 79 82 83 93 94 92 91 91 90 86 85 83 81 85 81 81 80
Wind_Direction
239 233 233 234 235 237 240 238 233 234 241 246 249 256 233 239 218 238 269 294 305 306 328 343 348 345 347 360 10 8 7 24 26 38 48 55 64 72 76 78 82 89 99 107
242 241 237 236 238 238 238 240 241 239 239 246 244 247 252 251 255 253 266 276 283 295 296 308 326 331 336 345 356 3 359 5 22 25 34 49 56 67 75 82 83 89 91 100
243 243 242 241 240 240 241 239 240 246 244 246 250 246 248 250 256 259 260 268 277 279 287 293 302 313 323 335 342 352 348 348 4 14 16 30 57 65 69 74 86 93 94 96
245 244 244 243 244 244 243 243 241 241 243 245 249 253 253 252 254 254 260 263 267 273 279 285 292 293 302 315 325 332 341 336 340 357 350 359 35 66 72 75 77 93 91 91
247 248 247 245 245 245 246 245 247 245 243 243 248 254 254 255 255 255 258 261 264 270 275 279 281 284 289 301 310 313 324 319 323 330 333 319 336 1 47 72 78 78 89 93
248 248 248 248 248 246 246 246 247 247 247 246 245 248 255 257 257 256 256 257 259 262 265 269 274 277 281 289 299 298 299 304 302 312 314 306 280 288 295 334 101 100 73 87
250 250 249 249 248 248 246 247 246 247 249 248 249 247 254 253 254 255 258 259 261 262 264 266 269 274 275 280 286 285 281 281 285 292 298 295 278 255 269 266 254 260 229 294
250 251 251 250 250 249 247 246 248 246 246 246 248 250 251 253 253 255 257 259 260 262 264 266 267 268 270 275 278 271 269 270 273 275 281 285 282 268 253 252 254 257 257 251
251 252 252 252 251 252 250 249 248 248 246 246 247 247 248 250 252 252 254 256 258 258 258 260 262 265 270 271 268 264 257 262 266 271 273 275 276 275 263 246 246 253 259 250
254 254 253 253 253 253 253 251 250 249 248 247 246 246 247 251 252 251 251 252 253 255 256 257 257 259 262 265 267 264 255 255 264 267 269 271 272 272 273 265 257 253 251 258
255 255 255 253 252 252 253 252 251 250 250 249 248 247 247 248 251 252 251 251 251 251 252 254 255 256 258 260 261 259 259 256 255 259 262 267 269 268 269 271 264 255 252 253
259 257 258 258 256 253 253 253 255 254 252 250 249 248 248 245 246 248 251 250 251 251 250 251 251 252 254 254 255 255 257 257 256 256 259 262 264 266 266 268 270 264 254 253
258 259 258 260 259 257 255 253 252 253 255 254 250 248 250 248 245 247 247 251 250 249 249 249 250 250 250 251 251 250 254 256 259 260 259 261 262 263 263 264 267 266 261 256
255 255 256 256 258 258 256 255 254 252 251 251 253 252 249 248 248 247 246 246 247 247 247 248 247 247 248 248 248 249 250 255 260 260 258 259 259 259 260 260 260 262 262 259
255 254 254 255 256 256 257 257 256 254 253 250 250 249 250 248 247 247 245 246 247 244 243 245 246 246 246 244 246 247 247 249 251 252 256 257 256 259 257 255 255 258 259 259
255 254 254 256 255 255 256 258 257 255 253 252 251 250 250 250 247 247 246 243 245 248 243 241 242 244 244 244 240 241 245 245 246 249 248 253 257 257 254 253 253 255 256 259
257 256 255 256 257 256 255 255 256 256 256 254 250 248 249 250 249 247 245 244 245 244 244 240 239 240 242 241 241 240 239 243 242 242 245 248 251 250 254 253 247 251 254 256
260 259 256 254 254 254 254 253 254 255 256 256 254 252 249 247 248 247 244 242 242 244 243 241 237 236 235 238 236 236 235 236 239 242 244 246 245 243 241 242 251 258 250 254
264 263 260 259 257 256 256 255 254 254 254 256 257 255 252 248 246 246 245 243 238 239 241 240 237 235 231 232 234 232 233 233 231 236 239 241 242 240 238 240 245 244 245 252
269 269 267 266 263 259 257 256 258 257 256 258 257 256 254 249 246 244 242 240 239 236 240 238 237 233 233 229 229 228 225 230 230 220 226 248 236 232 230 235 237 244 248 249
273 271 269 268 265 264 262 261 260 258 254 254 254 253 251 249 244 241 240 239 236 235 236 236 234 234 230 231 227 226 227 227 230 224 219 225 229 231 233 241 237 242 246 253
278 274 271 269 268 265 263 262 262 261 258 255 253 251 250 248 246 241 238 235 235 231 232 234 234 232 231 231 227 225 222 225 227 221 221 221 223 225 225 234 236 248 250 244
278 278 279 276 271 268 266 262 261 259 258 257 255 255 249 245 238 237 235 233 230 229 228 229 231 233 230 231 228 222 222 222 222 214 213 215 215 221 225 238 246 256 250 247
283 280 280 277 274 272 270 269 267 262 256 257 253 251 247 243 231 226 223 224 224 222 228 236 234 229 230 231 227 219 224 222 221 218 215 212 215 212 225 234 235 244 235 239
298 285 282 279 279 277 276 274 268 263 251 243 238 234 229 223 217 211 209 206 202 196 187 209 230 230 221 222 226 221 223 226 225 212 209 213 215 212 214 220 235 237 236 241
322 305 296 287 280 280 279 276 268 249 231 217 204 194 187 180 172 185 191 190 191 185 200 211 224 226 231 222 225 223 219 222 223 216 214 217 216 218 221 235 236 230 238 236
Height
10974 10982 10987 10992 10995 10999 11003 11008 11013 11013 11015 11018 11022 11023 11028 11026 11027 11028 11027 11027 11027 11029 11028 11029 11030 11029 11029 11029 11027 11025 11023 11022 11019 11016 11014 11013 11011 11009 11009 11009 11009 11009 11009 11009
10961 10968 10976 10981 10986 10990 10995 10999 11003 11006 11009 11011 11016 11016 11019 11022 11023 11025 11025 11024 11025 11025 11027 11027 11028 11030 11030 11029 11028 11026 11025 11023 11022 11020 11017 11015 11014 11013 11012 11011 11012 11012 11012 11012
10948 10956 10964 10970 10973 10978 10983 10990 10994 10994 11000 11004 11005 11010 11012 11014 11016 11017 11019 11021 11020 11022 11023 11025 11027 11028 11028 11028 11028 11027 11025 11024 11023 11022 11020 11018 11016 11016 11016 11015 11014 11015 11015 11014
10936 10943 10948 10955 10960 10966 10971 10977 10982 10986 10991 10996 10997 10999 11001 11006 11006 11009 11011 11014 11015 11017 11019 11021 11024 11026 11028 11028 11027 11027 11026 11025 11023 11022 11022 11021 11020 11018 11018 11017 11017 11017 11017 11017
10922 10928 10932 10939 10947 10954 10957 10964 10968 10974 10979 10986 10986 10988 10991 10994 10993 11000 11002 11004 11008 11012 11014 11015 11017 11020 11024 11025 11025 11025 11024 11024 11023 11022 11022 11021 11020 11020 11018 11018 11018 11018 11018 11018
10904 10910 10914 10920 10929 10938 10943 10948 10953 10958 10965 10976 10974 10980 10976 10977 10980 10985 10991 10995 10998 11002 11006 11008 11009 11013 11017 11019 11021 11022 11021 11021 11021 11021 11021 11021 11020 11019 11019 11019 11018 11019 11019 11019
10886 10891 10895 10900 10908 10916 10925 10929 10937 10943 10949 10953 10959 10969 10958 10963 10964 10971 10980 10987 10990 10993 10996 11000 11002 11005 11009 11013 11014 11016 11016 11016 11016 11017 11018 11019 11018 11017 11018 11018 11018 11018 11018 11018
10869 10873 10877 10882 10887 10895 10904 10910 10915 10923 10931 10934 10942 10953 10945 10942 10949 10960 10968 10973 10978 10982 10986 10990 10993 10995 10999 11005 11008 11010 11011 11011 11011 11012 11014 11015 11015 11015 11015 11016 11017 11017 11017 11018
10851 10855 10859 10863 10871 10875 10883 10890 10895 10900 10909 10916 10925 10930 10925 10921 10937 10947 10952 10957 10963 10970 10973 10976 10980 10985 10989 10994 10999 11000 11004 11004 11005 11007 11007 11009 11011 11011 11012 11012 11014 11014 11015 11015
10835 10837 10842 10843 10851 10855 10860 10868 10874 10878 10886 10896 10906 10910 10909 10911 10915 10927 10934 10940 10947 10954 10957 10962 10967 10972 10977 10983 10989 10993 10995 10997 10999 10999 11000 11002 11004 11005 11006 11007 11008 11009 11010 11011
10816 10817 10817 10823 10831 10836 10841 10844 10849 10857 10864 10873 10883 10890 10889 10896 10896 10902 10912 10921 10929 10937 10941 10945 10952 10958 10963 10971 10978 10981 10984 10988 10990 10991 10993 10994 10997 10998 10999 11000 11002 11003 11003 11004
10794 10800 10798 10800 10808 10816 10822 10825 10827 10832 10843 10851 10860 10870 10869 10874 10879 10880 10887 10901 10908 10916 10924 10929 10935 10943 10949 10956 10962 10967 10971 10975 10978 10982 10984 10986 10988 10990 10992 10992 10995 10998 10998 10998
10776 10778 10779 10777 10782 10789 10795 10802 10807 10812 10816 10826 10836 10849 10844 10853 10864 10864 10873 10879 10888 10895 10903 10911 10916 10924 10932 10940 10946 10952 10957 10960 10965 10971 10974 10977 10978 10981 10983 10985 10987 10989 10991 10993
10753 10755 10754 10755 10755 10759 10767 10772 10780 10788 10796 10799 10815 10821 10825 10829 10843 10845 10854 10860 10866 10876 10885 10891 10898 10905 10914 10923 10928 10936 10943 10948 10954 10960 10963 10966 10968 10970 10973 10976 10978 10980 10982 10983
10732 10733 10733 10733 10733 10735 10739 10745 10752 10758 10762 10778 10787 10798 10793 10809 10819 10822 10835 10838 10840 10854 10864 10871 10879 10886 10895 10905 10912 10919 10926 10934 10939 10945 10951 10954 10957 10961 10963 10966 10968 10971 10973 10975
10708 10710 10711 10712 10710 10715 10718 10720 10717 10722 10733 10750 10757 10775 10767 10784 10794 10802 10811 10820 10821 10828 10843 10851 10858 10867 10877 10886 10893 10902 10909 10917 10927 10932 10936 10941 10947 10950 10953 10956 10959 10961 10963 10966
10684 10685 10688 10689 10686 10692 10700 10692 10689 10694 10702 10712 10728 10742 10748 10757 10768 10779 10787 10796 10801 10808 10816 10830 10841 10849 10858 10867 10876 10883 10890 10900 10911 10919 10923 10929 10934 10938 10942 10945 10948 10950 10954 10957
10664 10665 10666 10667 10665 10670 10673 10670 10665 10670 10676 10677 10695 10710 10721 10735 10741 10750 10759 10772 10780 10782 10793 10806 10820 10827 10836 10843 10854 10862 10871 10881 10895 10904 10911 10917 10921 10924 10929 10934 10937 10941 10944 10948
10643 10643 10641 10642 10646 10654 10650 10641 10639 10645 10657 10650 10663 10677 10690 10704 10716 10725 10734 10744 10756 10760 10766 10781 10796 10806 10814 10823 10831 10843 10856 10865 10878 10893 10896 10904 10909 10914 10918 10923 10926 10930 10934 10938
10622 10619 10616 10617 10620 10627 10619 10615 10618 10623 10639 10631 10637 10646 10658 10674 10689 10694 10705 10717 10728 10740 10741 10757 10769 10782 10792 10801 10813 10824 10839 10846 10860 10873 10891 10893 10896 10899 10904 10911 10916 10919 10923 10927
10600 10597 10592 10589 10590 10592 10586 10592 10588 10595 10606 10603 10604 10613 10629 10644 10657 10666 10679 10689 10703 10715 10720 10732 10747 10757 10771 10780 10795 10804 10817 10827 10838 10853 10866 10875 10880 10884 10891 10899 10905 10909 10910 10915
10574 10569 10564 10563 10563 10562 10562 10563 10563 10566 10570 10573 10576 10584 10599 10614 10626 10642 10654 10666 10679 10692 10701 10715 10726 10735 10747 10757 10770 10785 10797 10809 10819 10832 10843 10855 10863 10871 10878 10887 10892 10897 10899 10902
10549 10545 10540 10539 10533 10531 10537 10535 10532 10542 10544 10537 10558 10557 10573 10586 10601 10621 10633 10642 10658 10674 10688 10696 10704 10716 10727 10736 10746 10762 10776 10789 10800 10814 10823 10836 10845 10856 10863 10868 10877 10880 10885 10887
10530 10526 10523 10518 10513 10514 10510 10512 10514 10517 10519 10521 10531 10537 10554 10564 10586 10600 10611 10628 10646 10662 10675 10678 10686 10696 10705 10711 10726 10742 10755 10768 10778 10789 10800 10814 10827 10837 10846 10852 10856 10861 10862 10867
10517 10512 10508 10503 10500 10497 10497 10495 10497 10499 10502 10506 10512 10524 10536 10552 10568 10584 10598 10613 10629 10646 10655 10657 10666 10678 10688 10695 10704 10716 10734 10747 10756 10770 10785 10793 10805 10818 10823 10826 10835 10836 10838 10845
10507 10500 10495 10491 10489 10487 10487 10486 10486 10489 10491 10498 10507 10516 10529 10545 10560 10574 10586 10600 10612 10622 10626 10631 10644 10657 10665 10677 10686 10697 10709 10719 10735 10754 10761 10770 10785 10796 10801 10804 10804 10811 10813 10824